Volk, WI

4:12 AM CDT on May 24, 2017 (GMT -0500)
Volk

Weather History for KVOK - February, 2012

Change the Weather History Date:

Monday, February 27, 2012

  Actual Average Record
Temperature  
Mean Temperature 26 °F -  
Max Temperature 35 °F 31 °F 59 °F (2016)
Min Temperature 15 °F 19 °F -17 °F (2014)
Degree Days  
Heating Degree Days 39    
Moisture  
Dew Point 18 °F    
Average Humidity 71    
Maximum Humidity 100    
Minimum Humidity 48    
Precipitation  
Precipitation 0.00 in - - ()
Sea Level Pressure  
Sea Level Pressure 30.23 in    
Wind  
Wind Speed 17 mph (West)    
Max Wind Speed 24 mph    
Max Gust Speed 31 mph    
Visibility 10 miles    
Events      
Averages and records for this station are not official NWS values.
T = Trace of Precipitation, MM = Missing Value Source: NWS Daily Summary

Daily Weather History Graph

Daily Weather History Graph

Search for Another Location

Airport or City:

Trip Planner

Search our weather history database for the weather conditions in past years. The results will help you decide how hot, cold, wet, or windy it might be!

Date:

Astronomy

Feb. 27, 2012 Rise Set
Actual Time 6:42 AM CST 5:46 PM CST
Civil Twilight 6:13 AM CST 6:15 PM CST
Nautical Twilight 5:39 AM CST 6:48 PM CST
Astronomical Twilight 5:06 AM CST 7:22 PM CST
Moon 8:57 AM CST (2/27) 11:54 PM CST (2/27)
Length of Visible Light 12h 02m
Length of Day
11h 04m
Waxing Crescent, 29% of the Moon is Illuminated
Feb 27
Waxing Crescent
Feb 29
First Quarter
Mar 8
Full
Mar 14
Last Quarter
Mar 22
New

Hourly Weather History & Observations

Time (CST) Temp. Windchill Dew Point Humidity Pressure Visibility Wind Dir Wind Speed Gust Speed Precip Events Conditions
12:55 AM 30.4 °F 18.7 °F 19.8 °F 65% 30.01 in 10.0 mi West 17.3 mph - N/A   Overcast
1:55 AM 29.7 °F 18.2 °F 19.8 °F 67% 30.03 in 10.0 mi West 16.1 mph 27.6 mph N/A   Overcast
2:27 AM 28.4 °F 14.1 °F 19.4 °F 69% 30.03 in 10.0 mi West 24.2 mph 29.9 mph N/A   Overcast
2:35 AM 28.4 °F 14.7 °F 19.4 °F 69% 30.03 in 10.0 mi West 21.9 mph 31.1 mph N/A   Overcast
2:43 AM 28.4 °F 15.8 °F 19.4 °F 69% 30.03 in 10.0 mi West 18.4 mph 25.3 mph N/A   Overcast
2:55 AM 28.8 °F 17.0 °F 18.9 °F 67% 30.04 in 10.0 mi West 16.1 mph 28.8 mph 0.00 in   Overcast
2:58 AM 28.4 °F 14.7 °F 19.4 °F 69% 30.04 in 10.0 mi West 21.9 mph 28.8 mph N/A   Overcast
3:08 AM 28.4 °F 16.2 °F 19.4 °F 69% 30.04 in 10.0 mi West 17.3 mph - N/A   Overcast
3:36 AM 28.4 °F 15.4 °F 19.4 °F 69% 30.05 in 10.0 mi West 19.6 mph 27.6 mph N/A   Overcast
3:55 AM 28.0 °F 15.7 °F 18.9 °F 68% 30.06 in 10.0 mi West 17.3 mph 23.0 mph 0.00 in   Overcast
4:05 AM 28.4 °F 15.8 °F 19.4 °F 69% 30.07 in 10.0 mi West 18.4 mph 25.3 mph N/A   Overcast
4:55 AM 27.5 °F 15.0 °F 17.6 °F 66% 30.10 in 10.0 mi West 17.3 mph 23.0 mph 0.00 in   Overcast
5:12 AM 26.6 °F 13.4 °F 17.6 °F 69% 30.11 in 10.0 mi West 18.4 mph 25.3 mph N/A   Overcast
5:16 AM 26.6 °F 13.4 °F 17.6 °F 69% 30.12 in 10.0 mi West 18.4 mph 25.3 mph N/A   Overcast
5:55 AM 26.4 °F 12.8 °F 19.0 °F 74% 30.14 in 10.0 mi West 19.6 mph 27.6 mph 0.00 in   Overcast
6:34 AM 26.6 °F 13.8 °F 19.4 °F 74% 30.16 in 10.0 mi West 17.3 mph - N/A   Overcast
6:37 AM 26.6 °F 14.3 °F 19.4 °F 74% 30.16 in 10.0 mi West 16.1 mph - N/A   Overcast
6:51 AM 24.8 °F 11.9 °F 19.4 °F 80% 30.17 in 10.0 mi West 16.1 mph - N/A   Overcast
6:55 AM 25.5 °F 11.6 °F 19.6 °F 78% 30.17 in 10.0 mi West 19.6 mph - 0.00 in   Overcast
7:55 AM 26.6 °F 13.4 °F 19.4 °F 74% 30.22 in 10.0 mi West 18.4 mph 24.2 mph N/A   Overcast
8:55 AM 26.6 °F 13.4 °F 19.4 °F 74% 30.25 in 10.0 mi West 18.4 mph 28.8 mph N/A   Overcast
9:55 AM 28.4 °F 15.1 °F 19.4 °F 69% 30.30 in 10.0 mi West 20.7 mph 27.6 mph N/A   Overcast
10:55 AM 30.2 °F 17.8 °F 19.4 °F 64% 30.33 in 10.0 mi WNW 19.6 mph 25.3 mph N/A   Overcast
11:55 AM 30.2 °F 17.8 °F 19.4 °F 64% 30.36 in 10.0 mi WNW 19.6 mph - N/A   Overcast
12:55 PM 33.8 °F 23.2 °F 19.4 °F 56% 30.34 in 10.0 mi WNW 17.3 mph - N/A   Mostly Cloudy
1:23 PM 33.8 °F 22.8 °F 19.4 °F 56% 30.37 in 10.0 mi WNW 18.4 mph 26.5 mph N/A   Mostly Cloudy
1:55 PM 33.8 °F 24.3 °F 17.6 °F 52% 30.38 in 10.0 mi WNW 13.8 mph 20.7 mph N/A   Partly Cloudy
2:55 PM 35.6 °F 25.9 °F 17.6 °F 48% 30.39 in 10.0 mi West 16.1 mph - N/A   Partly Cloudy
3:55 PM 35.6 °F 29.2 °F 17.6 °F 48% 30.40 in 10.0 mi West 8.1 mph 17.3 mph N/A   Partly Cloudy
4:55 PM 33.8 °F 26.4 °F 17.6 °F 52% 30.41 in 10.0 mi West 9.2 mph - N/A   Partly Cloudy
5:55 PM 24.8 °F 16.1 °F 15.8 °F 69% 30.44 in 10.0 mi West 8.1 mph - N/A   Partly Cloudy
6:55 PM 21.2 °F 13.6 °F 15.8 °F 80% 30.46 in 10.0 mi WSW 5.8 mph - N/A   Partly Cloudy
7:55 PM 19.4 °F - 15.8 °F 86% 30.45 in 10.0 mi Calm Calm - N/A   Partly Cloudy
8:55 PM 19.4 °F - 17.6 °F 93% 30.46 in 10.0 mi Calm Calm - N/A   Scattered Clouds
9:55 PM 17.6 °F - 15.8 °F 93% 30.48 in 10.0 mi Calm Calm - N/A   Mostly Cloudy
10:55 PM 17.6 °F 12.3 °F 17.6 °F 100% 30.46 in 10.0 mi ESE 3.5 mph - N/A   Mostly Cloudy
11:55 PM 15.8 °F - 15.8 °F 100% 30.46 in 10.0 mi Calm Calm - N/A   Mostly Cloudy